EDT,Max TemperatureF,Mean TemperatureF,Min TemperatureF,Max Dew PointF,MeanDew PointF,Min DewpointF,Max Humidity, Mean Humidity, Min Humidity, Max Sea Level PressureIn, Mean Sea Level PressureIn, Min Sea Level PressureIn, Max VisibilityMiles, Mean VisibilityMiles, Min VisibilityMiles, Max Wind SpeedMPH, Mean Wind SpeedMPH, Max Gust SpeedMPH,PrecipitationIn, CloudCover, Events, WindDirDegrees
2012-10-1,75,70,66,72,70,65,100,94,87,29.80,29.70,29.64,10,6,0,13,7,28,1.69,8,Fog-Rain,141
2012-10-2,72,68,61,70,63,59,94,84,71,30.02,29.82,29.68,10,10,6,7,3,,0.00,6,,208
2012-10-3,73,64,57,63,58,55,100,87,57,30.22,30.11,30.03,10,6,0,5,1,,0.00,2,Fog,279
2012-10-4,82,67,53,63,56,52,97,77,38,30.30,30.24,30.20,10,7,4,6,1,,0.01,0,,325
2012-10-5,82,67,52,64,57,50,97,77,39,30.23,30.14,30.04,10,7,3,5,0,,0.00,0,,160
2012-10-6,82,68,53,66,59,52,97,80,45,30.07,30.02,29.93,10,7,0,12,2,,0.00,3,Fog,318
2012-10-7,70,62,53,55,50,45,86,71,54,30.11,30.06,30.00,10,10,10,14,6,21,0.00,0,,311
2012-10-8,66,58,51,54,50,45,83,76,63,30.15,30.11,30.07,10,10,10,10,3,,0.00,6,,353
2012-10-9,71,61,51,57,50,48,93,76,51,30.18,30.12,30.06,10,10,7,7,2,,0.00,5,,91
2012-10-10,73,60,46,58,53,45,100,85,52,30.20,30.14,30.10,10,6,0,12,2,18,0.00,4,Fog,300
2012-10-11,77,60,46,58,51,45,93,81,42,30.30,30.25,30.19,10,8,5,7,0,,0.01,1,,305
2012-10-12,82,67,53,61,56,52,97,76,45,30.31,30.25,30.21,10,9,7,14,2,22,0.00,3,,323
2012-10-13,77,66,55,59,55,53,96,75,45,30.35,30.29,30.25,10,10,10,13,3,,0.00,0,,106
2012-10-14,78,68,57,63,60,55,96,80,58,30.26,30.18,30.03,10,9,6,8,3,,0.00,4,,127
2012-10-15,77,63,51,65,59,48,94,81,38,30.01,29.95,29.89,10,8,1,15,4,22,0.39,4,Rain-Thunderstorm,276
2012-10-16,73,58,45,54,46,37,96,71,28,30.01,29.96,29.90,10,10,10,9,2,,0.00,0,,328
2012-10-17,75,60,46,56,48,44,97,73,33,29.98,29.91,29.84,10,10,8,8,2,,0.00,0,,150
2012-10-18,73,62,52,63,57,48,100,86,64,29.87,29.83,29.79,10,9,2,17,4,,0.19,4,Rain,177
2012-10-19,72,56,41,51,40,30,97,66,21,29.87,29.84,29.78,10,10,9,14,3,28,0.01,0,,252
2012-10-20,71,54,39,51,43,39,97,75,39,30.01,29.93,29.86,10,10,10,10,2,17,0.00,0,,295
2012-10-21,75,57,39,53,45,38,97,74,33,30.18,30.12,30.02,10,10,10,10,1,,0.00,0,,335
2012-10-22,79,61,43,57,48,41,93,73,36,30.25,30.19,30.13,10,10,9,4,0,,0.00,0,,130
2012-10-23,78,60,44,56,48,42,93,73,33,30.22,30.16,30.11,10,9,7,7,1,,0.01,0,,127
2012-10-24,80,62,45,58,51,43,93,75,39,30.22,30.15,30.09,10,9,7,8,1,,0.00,0,,120
2012-10-25,81,64,48,60,54,46,97,78,47,30.12,30.07,30.03,10,9,7,10,1,,0.00,1,,88
2012-10-26,81,67,53,61,56,51,93,78,44,30.07,30.00,29.92,10,9,8,8,1,,0.00,1,,76
2012-10-27,71,62,53,57,53,46,96,79,58,29.92,29.86,29.79,10,9,6,16,5,22,0.00,2,,314
2012-10-28,57,52,48,46,43,36,83,71,59,29.91,29.84,29.80,10,10,10,21,12,40,0.00,8,,319
2012-10-29,57,50,44,35,29,22,65,48,28,29.93,29.88,29.81,10,10,10,24,17,37,0.00,0,,317
2012-10-30,55,48,41,28,24,19,57,41,24,29.87,29.79,29.75,10,10,10,20,11,31,0.00,0,,291
2012-10-31,64,47,30,37,30,26,89,57,24,29.94,29.90,29.87,10,10,10,16,3,25,0.00,0,,281